,,PressureMeas_1m,,PRMeasQMR101_1,,RHStat155_1m_1,,SRMeasQMS101R_1m,,TAStat155_1m_1,,GenWind_1,,GenWind_1,
2018-04-14, 00:00:06,VALID,916.595,VALID,0.0,VALID,92.606,VALID,0.026,VALID,20.751,VALID,66.0,VALID,0.0,
2018-04-14, 00:01:06,VALID,916.585,VALID,0.0,VALID,92.963,VALID,0.018,VALID,20.689,VALID,66.0,VALID,0.0,
2018-04-14, 00:02:06,VALID,916.584,VALID,0.0,VALID,93.153,VALID,-0.006,VALID,20.66,VALID,66.0,VALID,0.0,
2018-04-14, 00:03:06,VALID,916.565,VALID,0.0,VALID,93.283,VALID,-0.001,VALID,20.642,VALID,66.0,VALID,0.0,
2018-04-14, 00:04:07,VALID,916.591,VALID,0.0,VALID,93.404,VALID,0.001,VALID,20.648,VALID,119.0,VALID,0.0,
2018-04-14, 00:05:07,VALID,916.601,VALID,0.0,VALID,93.371,VALID,-0.009,VALID,20.644,VALID,92.0,VALID,0.3,
2018-04-14, 00:06:07,VALID,916.593,VALID,0.0,VALID,93.334,VALID,-0.003,VALID,20.633,VALID,97.0,VALID,0.363,
2018-04-14, 00:07:07,VALID,916.611,VALID,0.0,VALID,93.382,VALID,0.005,VALID,20.647,VALID,76.0,VALID,0.488,
2018-04-14, 00:08:07,VALID,916.607,VALID,0.0,VALID,93.472,VALID,0.012,VALID,20.669,VALID,89.0,VALID,0.339,
2018-04-14, 00:09:07,VALID,916.596,VALID,0.0,VALID,93.38,VALID,0.015,VALID,20.71,VALID,105.0,VALID,0.6,
2018-04-14, 00:10:07,VALID,916.59,VALID,0.0,VALID,93.228,VALID,0.012,VALID,20.733,VALID,137.0,VALID,0.107,
2018-04-14, 00:11:07,VALID,916.578,VALID,0.0,VALID,93.09,VALID,0.004,VALID,20.758,VALID,139.0,VALID,0.188,
2018-04-14, 00:12:07,VALID,916.56,VALID,0.0,VALID,93.05,VALID,0.01,VALID,20.811,VALID,136.0,VALID,0.542,
2018-04-14, 00:13:07,VALID,916.555,VALID,0.0,VALID,92.545,VALID,0.012,VALID,20.905,VALID,107.0,VALID,0.754,
2018-04-14, 00:14:07,VALID,916.544,VALID,0.0,VALID,92.009,VALID,-0.011,VALID,20.97,VALID,121.0,VALID,0.611,
2018-04-14, 00:15:07,VALID,916.548,VALID,0.0,VALID,91.923,VALID,0.022,VALID,21.009,VALID,161.0,VALID,0.169,
2018-04-14, 00:16:07,VALID,916.533,VALID,0.0,VALID,91.759,VALID,0.006,VALID,21.047,INVALID,360.0,VALID,0.0,
2018-04-14, 00:17:07,VALID,916.53,VALID,0.0,VALID,91.723,VALID,0.019,VALID,21.061,VALID,141.0,VALID,0.068,
2018-04-14, 00:18:07,VALID,916.539,VALID,0.0,VALID,91.792,VALID,0.033,VALID,21.048,VALID,138.0,VALID,0.55,
2018-04-14, 00:19:07,VALID,916.534,VALID,0.0,VALID,91.868,VALID,0.017,VALID,21.05,VALID,131.0,VALID,0.932,
2018-04-14, 00:20:07,VALID,916.561,VALID,0.0,VALID,91.657,VALID,0.006,VALID,21.072,VALID,132.0,VALID,0.752,
2018-04-14, 00:21:07,VALID,916.567,VALID,0.0,VALID,91.661,VALID,0.018,VALID,21.092,VALID,165.0,VALID,0.339,
2018-04-14, 00:22:07,VALID,916.596,VALID,0.0,VALID,91.631,VALID,0.028,VALID,21.112,VALID,133.0,VALID,0.654,
2018-04-14, 00:23:07,VALID,916.611,VALID,0.0,VALID,91.425,VALID,0.005,VALID,21.135,VALID,144.0,VALID,0.755,
2018-04-14, 00:24:07,VALID,916.616,VALID,0.0,VALID,91.332,VALID,0.009,VALID,21.167,VALID,133.0,VALID,0.961,
2018-04-14, 00:25:07,VALID,916.615,VALID,0.0,VALID,91.229,VALID,0.006,VALID,21.202,VALID,137.0,VALID,0.605,
2018-04-14, 00:26:07,VALID,916.632,VALID,0.0,VALID,91.188,VALID,0.026,VALID,21.208,VALID,121.0,VALID,0.98,
2018-04-14, 00:27:07,VALID,916.637,VALID,0.0,VALID,91.046,VALID,0.002,VALID,21.215,VALID,123.0,VALID,1.321,
2018-04-14, 00:28:07,VALID,916.619,VALID,0.0,VALID,91.153,VALID,0.013,VALID,21.213,VALID,135.0,VALID,1.01,
2018-04-14, 00:29:07,VALID,916.617,VALID,0.0,VALID,91.214,VALID,0.013,VALID,21.235,VALID,145.0,VALID,0.072,
2018-04-14, 00:30:07,VALID,916.605,VALID,0.0,VALID,91.015,VALID,0.022,VALID,21.245,VALID,142.0,VALID,0.509,
2018-04-14, 00:31:07,VALID,916.609,VALID,0.0,VALID,90.895,VALID,0.02,VALID,21.259,VALID,106.0,VALID,0.671,
2018-04-14, 00:32:07,VALID,916.596,VALID,0.0,VALID,91.159,VALID,-0.001,VALID,21.241,VALID,109.0,VALID,0.592,
2018-04-14, 00:33:07,VALID,916.59,VALID,0.0,VALID,91.161,VALID,-0.024,VALID,21.218,VALID,119.0,VALID,0.932,
2018-04-14, 00:34:07,VALID,916.57,VALID,0.0,VALID,91.333,VALID,-0.02,VALID,21.215,VALID,102.0,VALID,0.305,
2018-04-14, 00:35:07,VALID,916.554,VALID,0.0,VALID,91.62,VALID,-0.008,VALID,21.189,VALID,91.0,VALID,0.795,
2018-04-14, 00:36:07,VALID,916.55,VALID,0.0,VALID,91.551,VALID,-0.009,VALID,21.156,VALID,97.0,VALID,0.686,
2018-04-14, 00:37:07,VALID,916.532,VALID,0.0,VALID,91.787,VALID,-0.008,VALID,21.131,VALID,109.0,VALID,0.779,
2018-04-14, 00:38:07,VALID,916.515,VALID,0.0,VALID,91.812,VALID,-0.014,VALID,21.13,VALID,113.0,VALID,0.45,
2018-04-14, 00:39:07,VALID,916.495,VALID,0.0,VALID,91.752,VALID,-0.011,VALID,21.135,VALID,105.0,VALID,0.386,
2018-04-14, 00:40:07,VALID,916.452,VALID,0.0,VALID,91.497,VALID,0.008,VALID,21.144,VALID,110.0,VALID,0.792,
2018-04-14, 00:41:07,VALID,916.425,VALID,0.0,VALID,91.522,VALID,0.013,VALID,21.171,VALID,84.0,VALID,0.358,
2018-04-14, 00:42:07,VALID,916.398,VALID,0.0,VALID,91.904,VALID,0.001,VALID,21.158,VALID,85.0,VALID,0.239,
2018-04-14, 00:43:07,VALID,916.377,VALID,0.0,VALID,91.864,VALID,0.004,VALID,21.115,VALID,88.0,VALID,0.608,
2018-04-14, 00:44:07,VALID,916.342,VALID,0.0,VALID,91.698,VALID,-0.011,VALID,21.117,VALID,85.0,VALID,0.916,
2018-04-14, 00:45:07,VALID,916.328,VALID,0.0,VALID,91.766,VALID,-0.004,VALID,21.125,VALID,72.0,VALID,0.837,
2018-04-14, 00:46:07,VALID,916.292,VALID,0.0,VALID,91.921,VALID,-0.004,VALID,21.096,VALID,72.0,VALID,0.753,
2018-04-14, 00:47:07,VALID,916.252,VALID,0.0,VALID,91.968,VALID,-0.02,VALID,21.053,VALID,78.0,VALID,0.998,
2018-04-14, 00:48:07,VALID,916.226,VALID,0.0,VALID,91.917,VALID,-0.032,VALID,21.051,VALID,89.0,VALID,0.878,
2018-04-14, 00:49:07,VALID,916.198,VALID,0.0,VALID,91.849,VALID,-0.018,VALID,21.065,VALID,87.0,VALID,0.991,
2018-04-14, 00:50:07,VALID,916.189,VALID,0.0,VALID,91.826,VALID,-0.008,VALID,21.077,VALID,93.0,VALID,1.129,
2018-04-14, 00:51:07,VALID,916.186,VALID,0.0,VALID,91.582,VALID,-0.022,VALID,21.11,VALID,93.0,VALID,1.597,
2018-04-14, 00:52:07,VALID,916.156,VALID,0.0,VALID,91.553,VALID,-0.016,VALID,21.144,VALID,96.0,VALID,1.393,
2018-04-14, 00:53:07,VALID,916.115,VALID,0.0,VALID,91.266,VALID,-0.015,VALID,21.17,VALID,97.0,VALID,1.332,
2018-04-14, 00:54:07,VALID,916.069,VALID,0.0,VALID,91.171,VALID,-0.019,VALID,21.208,VALID,104.0,VALID,0.67,
2018-04-14, 00:55:07,VALID,916.054,VALID,0.0,VALID,91.125,VALID,-0.017,VALID,21.218,VALID,101.0,VALID,0.914,
2018-04-14, 00:56:07,VALID,916.028,VALID,0.0,VALID,91.181,VALID,-0.005,VALID,21.225,VALID,93.0,VALID,1.215,
2018-04-14, 00:57:07,VALID,915.991,VALID,0.0,VALID,91.021,VALID,-0.02,VALID,21.215,VALID,97.0,VALID,1.382,
2018-04-14, 00:58:07,VALID,915.986,VALID,0.0,VALID,90.978,VALID,-0.027,VALID,21.221,VALID,99.0,VALID,1.562,
2018-04-14, 00:59:07,VALID,916.007,VALID,0.0,VALID,90.89,VALID,-0.009,VALID,21.232,VALID,88.0,VALID,1.479,
2018-04-14, 01:00:07,VALID,916.009,VALID,0.0,VALID,91.223,VALID,-0.019,VALID,21.217,VALID,97.0,VALID,0.974,
2018-04-14, 01:01:07,VALID,916.0,VALID,0.0,VALID,91.491,VALID,-0.007,VALID,21.177,VALID,104.0,VALID,1.387,
2018-04-14, 01:02:07,VALID,915.989,VALID,0.0,VALID,91.493,VALID,0.012,VALID,21.151,VALID,111.0,VALID,1.652,
2018-04-14, 01:03:07,VALID,915.984,VALID,0.0,VALID,91.418,VALID,0.015,VALID,21.155,VALID,110.0,VALID,1.717,
2018-04-14, 01:04:07,VALID,915.964,VALID,0.0,VALID,91.501,VALID,0.023,VALID,21.143,VALID,110.0,VALID,2.073,
2018-04-14, 01:05:07,VALID,915.955,VALID,0.0,VALID,91.334,VALID,0.02,VALID,21.157,VALID,112.0,VALID,2.101,
2018-04-14, 01:06:07,VALID,915.928,VALID,0.0,VALID,91.203,VALID,0.022,VALID,21.18,VALID,117.0,VALID,2.132,
2018-04-14, 01:07:07,VALID,915.89,VALID,0.0,VALID,91.29,VALID,0.032,VALID,21.191,VALID,117.0,VALID,1.668,
2018-04-14, 01:08:07,VALID,915.867,VALID,0.0,VALID,91.414,VALID,0.016,VALID,21.168,VALID,121.0,VALID,2.109,
2018-04-14, 01:09:07,VALID,915.83,VALID,0.0,VALID,91.424,VALID,0.026,VALID,21.17,VALID,121.0,VALID,2.146,
2018-04-14, 01:10:07,VALID,915.809,VALID,0.0,VALID,91.156,VALID,0.014,VALID,21.186,VALID,120.0,VALID,1.895,
2018-04-14, 01:11:07,VALID,915.803,VALID,0.0,VALID,91.009,VALID,0.014,VALID,21.219,VALID,123.0,VALID,1.675,
2018-04-14, 01:12:07,VALID,915.818,VALID,0.0,VALID,91.186,VALID,0.016,VALID,21.208,VALID,101.0,VALID,1.255,
2018-04-14, 01:13:07,VALID,915.823,VALID,0.0,VALID,91.371,VALID,0.024,VALID,21.17,VALID,103.0,VALID,1.802,
2018-04-14, 01:14:07,VALID,915.795,VALID,0.0,VALID,91.027,VALID,0.019,VALID,21.207,VALID,100.0,VALID,1.493,
2018-04-14, 01:15:07,VALID,915.778,VALID,0.0,VALID,90.342,VALID,0.016,VALID,21.285,VALID,95.0,VALID,1.822,
2018-04-14, 01:16:07,VALID,915.775,VALID,0.0,VALID,89.25,VALID,0.006,VALID,21.454,VALID,113.0,VALID,2.462,
2018-04-14, 01:17:07,VALID,915.786,VALID,0.0,VALID,88.43,VALID,0.018,VALID,21.611,VALID,95.0,VALID,1.616,
2018-04-14, 01:18:07,VALID,915.79,VALID,0.0,VALID,88.865,VALID,0.024,VALID,21.649,VALID,75.0,VALID,0.921,
2018-04-14, 01:19:07,VALID,915.795,VALID,0.0,VALID,88.928,VALID,0.012,VALID,21.593,VALID,83.0,VALID,1.349,
2018-04-14, 01:20:07,VALID,915.783,VALID,0.0,VALID,89.296,VALID,-0.005,VALID,21.528,VALID,61.0,VALID,0.883,
2018-04-14, 01:21:07,VALID,915.769,VALID,0.0,VALID,89.567,VALID,0.012,VALID,21.46,VALID,74.0,VALID,0.897,
2018-04-14, 01:22:07,VALID,915.758,VALID,0.0,VALID,89.579,VALID,0.027,VALID,21.433,VALID,78.0,VALID,0.865,
2018-04-14, 01:23:07,VALID,915.722,VALID,0.0,VALID,89.779,VALID,0.006,VALID,21.41,VALID,68.0,VALID,0.714,
2018-04-14, 01:24:07,VALID,915.678,VALID,0.0,VALID,89.941,VALID,0.012,VALID,21.392,VALID,53.0,VALID,0.398,
2018-04-14, 01:25:07,VALID,915.656,VALID,0.0,VALID,90.187,VALID,0.008,VALID,21.364,VALID,54.0,VALID,0.542,
2018-04-14, 01:26:07,VALID,915.643,VALID,0.0,VALID,90.059,VALID,0.01,VALID,21.344,VALID,68.0,VALID,0.692,
2018-04-14, 01:27:07,VALID,915.631,VALID,0.0,VALID,89.994,VALID,0.007,VALID,21.362,VALID,64.0,VALID,0.061,
2018-04-14, 01:28:07,VALID,915.609,VALID,0.0,VALID,90.249,VALID,0.013,VALID,21.363,VALID,64.0,VALID,0.0,
2018-04-14, 01:29:07,VALID,915.594,VALID,0.0,VALID,90.469,VALID,0.024,VALID,21.353,VALID,64.0,VALID,0.0,
2018-04-14, 01:30:07,VALID,915.598,VALID,0.0,VALID,90.551,VALID,0.012,VALID,21.336,VALID,64.0,VALID,0.0,
2018-04-14, 01:31:07,VALID,915.603,VALID,0.0,VALID,90.668,VALID,0.019,VALID,21.329,VALID,64.0,VALID,0.0,
2018-04-14, 01:32:07,VALID,915.607,VALID,0.0,VALID,90.728,VALID,-0.011,VALID,21.325,VALID,64.0,VALID,0.0,
2018-04-14, 01:33:07,VALID,915.593,VALID,0.0,VALID,90.736,VALID,-0.031,VALID,21.323,VALID,71.0,VALID,0.044,
2018-04-14, 01:34:07,VALID,915.573,VALID,0.0,VALID,90.506,VALID,-0.017,VALID,21.301,VALID,96.0,VALID,0.049,
2018-04-14, 01:35:07,VALID,915.557,VALID,0.0,VALID,90.602,VALID,-0.014,VALID,21.288,VALID,106.0,VALID,0.034,
2018-04-14, 01:36:07,VALID,915.548,VALID,0.0,VALID,90.862,VALID,-0.025,VALID,21.278,VALID,130.0,VALID,0.432,
2018-04-14, 01:37:07,VALID,915.537,VALID,0.0,VALID,90.734,VALID,-0.03,VALID,21.29,VALID,108.0,VALID,0.57,
2018-04-14, 01:38:07,VALID,915.535,VALID,0.0,VALID,90.712,VALID,-0.021,VALID,21.315,VALID,89.0,VALID,0.386,
2018-04-14, 01:39:07,VALID,915.52,VALID,0.0,VALID,91.043,VALID,-0.032,VALID,21.333,VALID,93.0,VALID,0.017,
2018-04-14, 01:40:07,VALID,915.504,VALID,0.0,VALID,91.377,VALID,-0.009,VALID,21.32,VALID,93.0,VALID,0.0,
2018-04-14, 01:41:07,VALID,915.479,VALID,0.0,VALID,91.622,VALID,-0.022,VALID,21.303,VALID,80.0,VALID,0.0,
2018-04-14, 01:42:07,VALID,915.496,VALID,0.0,VALID,91.527,VALID,-0.025,VALID,21.294,VALID,65.0,VALID,0.0,
2018-04-14, 01:43:07,VALID,915.489,VALID,0.0,VALID,91.175,VALID,-0.027,VALID,21.276,VALID,65.0,VALID,0.0,
2018-04-14, 01:44:07,VALID,915.49,VALID,0.0,VALID,91.234,VALID,-0.033,VALID,21.265,VALID,65.0,VALID,0.0,
2018-04-14, 01:45:07,VALID,915.499,VALID,0.0,VALID,91.138,VALID,-0.042,VALID,21.285,VALID,65.0,VALID,0.0,
2018-04-14, 01:46:07,VALID,915.486,VALID,0.0,VALID,91.733,VALID,-0.021,VALID,21.295,VALID,65.0,VALID,0.0,
2018-04-14, 01:47:07,VALID,915.466,VALID,0.0,VALID,91.253,VALID,-0.005,VALID,21.26,VALID,22.0,VALID,0.055,
2018-04-14, 01:48:07,VALID,915.46,VALID,0.0,VALID,92.118,VALID,-0.005,VALID,21.182,VALID,262.0,VALID,0.598,
2018-04-14, 01:49:07,VALID,915.455,VALID,0.0,VALID,93.252,VALID,-0.005,VALID,21.044,VALID,255.0,VALID,0.673,
2018-04-14, 01:50:07,VALID,915.457,VALID,0.0,VALID,93.921,VALID,-0.014,VALID,20.91,VALID,249.0,VALID,0.573,
2018-04-14, 01:51:07,VALID,915.457,VALID,0.0,VALID,94.249,VALID,-0.005,VALID,20.799,VALID,243.0,VALID,0.624,
2018-04-14, 01:52:07,VALID,915.474,VALID,0.0,VALID,94.521,VALID,-0.006,VALID,20.729,VALID,239.0,VALID,0.446,
2018-04-14, 01:53:07,VALID,915.489,VALID,0.0,VALID,94.835,VALID,-0.023,VALID,20.698,VALID,254.0,VALID,0.39,
2018-04-14, 01:54:07,VALID,915.48,VALID,0.0,VALID,94.61,VALID,-0.014,VALID,20.664,VALID,268.0,VALID,0.488,
2018-04-14, 01:55:07,VALID,915.466,VALID,0.0,VALID,94.693,VALID,-0.022,VALID,20.654,VALID,268.0,VALID,0.171,
2018-04-14, 01:56:07,VALID,915.449,VALID,0.0,VALID,94.79,VALID,-0.023,VALID,20.66,VALID,268.0,VALID,0.134,
2018-04-14, 01:57:07,VALID,915.433,VALID,0.0,VALID,95.04,VALID,-0.018,VALID,20.674,VALID,270.0,VALID,0.147,
2018-04-14, 01:58:07,VALID,915.425,VALID,0.0,VALID,95.152,VALID,-0.029,VALID,20.688,VALID,270.0,VALID,0.0,
2018-04-14, 01:59:07,VALID,915.427,VALID,0.0,VALID,95.01,VALID,-0.024,VALID,20.682,VALID,270.0,VALID,0.039,
2018-04-14, 02:00:07,VALID,915.431,VALID,0.0,VALID,94.481,VALID,-0.027,VALID,20.712,VALID,264.0,VALID,0.0,
2018-04-14, 02:01:07,VALID,915.459,VALID,0.0,VALID,94.566,VALID,-0.01,VALID,20.749,VALID,274.0,VALID,0.0,
2018-04-14, 02:02:07,VALID,915.462,VALID,0.0,VALID,94.412,VALID,-0.016,VALID,20.738,VALID,283.0,VALID,0.0,
2018-04-14, 02:03:07,VALID,915.476,VALID,0.0,VALID,94.368,VALID,-0.012,VALID,20.74,VALID,283.0,VALID,0.0,
2018-04-14, 02:04:07,VALID,915.478,VALID,0.0,VALID,94.916,VALID,-0.012,VALID,20.785,VALID,283.0,VALID,0.0,
2018-04-14, 02:05:07,VALID,915.479,VALID,0.0,VALID,95.051,VALID,-0.015,VALID,20.807,VALID,283.0,VALID,0.0,
2018-04-14, 02:06:07,VALID,915.475,VALID,0.0,VALID,94.799,VALID,-0.004,VALID,20.797,VALID,283.0,VALID,0.0,
2018-04-14, 02:07:07,VALID,915.476,VALID,0.0,VALID,94.608,VALID,-0.003,VALID,20.805,VALID,292.0,VALID,0.048,
2018-04-14, 02:08:07,VALID,915.492,VALID,0.0,VALID,94.295,VALID,-0.021,VALID,20.823,VALID,310.0,VALID,0.09,
2018-04-14, 02:09:07,VALID,915.49,VALID,0.0,VALID,94.678,VALID,-0.031,VALID,20.844,VALID,311.0,VALID,0.0,
2018-04-14, 02:10:07,VALID,915.506,VALID,0.0,VALID,94.492,VALID,-0.011,VALID,20.798,VALID,335.0,VALID,0.0,
2018-04-14, 02:11:06,VALID,915.533,VALID,0.0,VALID,94.636,VALID,-0.025,VALID,20.762,VALID,19.0,VALID,0.29,
2018-04-14, 02:12:06,VALID,915.537,VALID,0.0,VALID,94.608,VALID,-0.025,VALID,20.713,VALID,11.0,VALID,0.326,
2018-04-14, 02:13:06,VALID,915.553,VALID,0.0,VALID,94.804,VALID,-0.037,VALID,20.707,VALID,349.0,VALID,0.286,
2018-04-14, 02:14:06,VALID,915.58,VALID,0.0,VALID,94.922,VALID,-0.022,VALID,20.717,VALID,341.0,VALID,0.043,
2018-04-14, 02:15:06,VALID,915.581,VALID,0.0,VALID,94.337,VALID,-0.021,VALID,20.716,VALID,304.0,VALID,0.06,
2018-04-14, 02:16:06,VALID,915.581,VALID,0.0,VALID,93.761,VALID,-0.018,VALID,20.773,VALID,302.0,VALID,0.0,
2018-04-14, 02:17:06,VALID,915.581,VALID,0.0,VALID,93.55,VALID,-0.001,VALID,20.84,VALID,302.0,VALID,0.0,
2018-04-14, 02:18:06,VALID,915.578,VALID,0.0,VALID,93.564,VALID,-0.026,VALID,20.932,VALID,301.0,VALID,0.427,
2018-04-14, 02:19:06,VALID,915.587,VALID,0.0,VALID,93.56,VALID,-0.019,VALID,20.951,VALID,309.0,VALID,0.299,
2018-04-14, 02:20:06,VALID,915.591,VALID,0.0,VALID,93.359,VALID,-0.022,VALID,20.948,VALID,320.0,VALID,0.0,
2018-04-14, 02:21:06,VALID,915.582,VALID,0.0,VALID,94.034,VALID,-0.031,VALID,20.943,VALID,330.0,VALID,0.0,
2018-04-14, 02:22:06,VALID,915.577,VALID,0.0,VALID,94.452,VALID,-0.017,VALID,20.918,VALID,330.0,VALID,0.0,
2018-04-14, 02:23:06,VALID,915.57,VALID,0.0,VALID,94.558,VALID,-0.02,VALID,20.901,VALID,330.0,VALID,0.0,
2018-04-14, 02:24:06,VALID,915.555,VALID,0.0,VALID,94.691,VALID,-0.011,VALID,20.896,VALID,330.0,VALID,0.0,
2018-04-14, 02:25:06,VALID,915.558,VALID,0.0,VALID,94.426,VALID,-0.029,VALID,20.871,VALID,290.0,VALID,0.0,
2018-04-14, 02:26:06,VALID,915.569,VALID,0.0,VALID,94.361,VALID,-0.025,VALID,20.844,VALID,261.0,VALID,0.0,
2018-04-14, 02:27:06,VALID,915.586,VALID,0.0,VALID,94.296,VALID,-0.021,VALID,20.832,VALID,256.0,VALID,0.0,
2018-04-14, 02:28:06,VALID,915.585,VALID,0.0,VALID,94.241,VALID,-0.029,VALID,20.85,VALID,256.0,VALID,0.0,
2018-04-14, 02:29:06,VALID,915.58,VALID,0.0,VALID,94.041,VALID,-0.025,VALID,20.87,VALID,256.0,VALID,0.0,
2018-04-14, 02:30:06,VALID,915.583,VALID,0.0,VALID,93.904,VALID,-0.027,VALID,20.885,VALID,256.0,VALID,0.0,
2018-04-14, 02:31:06,VALID,915.594,VALID,0.0,VALID,93.715,VALID,-0.027,VALID,20.889,VALID,256.0,VALID,0.0,
2018-04-14, 02:32:06,VALID,915.594,VALID,0.0,VALID,93.783,VALID,-0.003,VALID,20.891,INVALID,360.0,VALID,0.0,
2018-04-14, 02:33:06,VALID,915.592,VALID,0.0,VALID,93.7,VALID,0.003,VALID,20.876,INVALID,360.0,VALID,0.0,
2018-04-14, 02:34:06,VALID,915.585,VALID,0.0,VALID,93.732,VALID,-0.014,VALID,20.879,INVALID,360.0,VALID,0.0,
2018-04-14, 02:35:06,VALID,915.565,VALID,0.0,VALID,93.603,VALID,-0.018,VALID,20.903,INVALID,360.0,VALID,0.0,
2018-04-14, 02:36:06,VALID,915.556,VALID,0.0,VALID,93.365,VALID,-0.011,VALID,20.958,INVALID,360.0,VALID,0.0,
2018-04-14, 02:37:06,VALID,915.545,VALID,0.0,VALID,92.899,VALID,-0.032,VALID,21.028,INVALID,360.0,VALID,0.0,
2018-04-14, 02:38:06,VALID,915.548,VALID,0.0,VALID,93.598,VALID,-0.012,VALID,21.02,INVALID,360.0,VALID,0.0,
2018-04-14, 02:39:06,VALID,915.538,VALID,0.0,VALID,93.595,VALID,-0.005,VALID,20.951,INVALID,360.0,VALID,0.0,
2018-04-14, 02:40:06,VALID,915.511,VALID,0.0,VALID,93.181,VALID,-0.017,VALID,20.927,INVALID,360.0,VALID,0.0,
2018-04-14, 02:41:06,VALID,915.489,VALID,0.0,VALID,92.817,VALID,-0.0,VALID,20.965,INVALID,360.0,VALID,0.0,
2018-04-14, 02:42:06,VALID,915.456,VALID,0.0,VALID,92.432,VALID,-0.003,VALID,21.033,INVALID,360.0,VALID,0.274,
2018-04-14, 02:43:06,VALID,915.442,VALID,0.0,VALID,91.822,VALID,-0.009,VALID,21.097,VALID,229.0,VALID,0.6,
2018-04-14, 02:44:06,VALID,915.444,VALID,0.0,VALID,91.193,VALID,-0.022,VALID,21.163,INVALID,360.0,VALID,0.061,
2018-04-14, 02:45:06,VALID,915.455,VALID,0.0,VALID,91.203,VALID,-0.005,VALID,21.206,INVALID,360.0,VALID,0.004,
2018-04-14, 02:46:06,VALID,915.451,VALID,0.0,VALID,91.854,VALID,-0.016,VALID,21.215,INVALID,360.0,VALID,0.0,
2018-04-14, 02:47:06,VALID,915.466,VALID,0.0,VALID,92.242,VALID,-0.02,VALID,21.131,VALID,357.0,VALID,0.232,
2018-04-14, 02:48:06,VALID,915.479,VALID,0.0,VALID,93.104,VALID,-0.009,VALID,21.025,VALID,23.0,VALID,0.053,
2018-04-14, 02:49:06,VALID,915.462,VALID,0.0,VALID,92.671,VALID,-0.022,VALID,20.961,VALID,25.0,VALID,0.0,
2018-04-14, 02:50:06,VALID,915.451,VALID,0.0,VALID,93.085,VALID,-0.032,VALID,20.95,VALID,25.0,VALID,0.0,
2018-04-14, 02:51:06,VALID,915.456,VALID,0.0,VALID,93.167,VALID,-0.017,VALID,20.947,VALID,33.0,VALID,0.01,
2018-04-14, 02:52:06,VALID,915.453,VALID,0.0,VALID,93.149,VALID,-0.043,VALID,20.915,VALID,99.0,VALID,0.234,
2018-04-14, 02:53:06,VALID,915.455,VALID,0.0,VALID,93.24,VALID,-0.031,VALID,20.864,VALID,106.0,VALID,0.0,
2018-04-14, 02:54:06,VALID,915.437,VALID,0.0,VALID,93.268,VALID,-0.015,VALID,20.854,VALID,106.0,VALID,0.0,
2018-04-14, 02:55:06,VALID,915.427,VALID,0.0,VALID,93.318,VALID,-0.004,VALID,20.857,VALID,107.0,VALID,0.287,
2018-04-14, 02:56:06,VALID,915.407,VALID,0.0,VALID,93.62,VALID,-0.006,VALID,20.815,VALID,115.0,VALID,0.116,
2018-04-14, 02:57:06,VALID,915.396,VALID,0.0,VALID,93.969,VALID,-0.012,VALID,20.802,VALID,118.0,VALID,0.011,
2018-04-14, 02:58:06,VALID,915.393,VALID,0.0,VALID,94.047,VALID,-0.013,VALID,20.798,VALID,118.0,VALID,0.0,
2018-04-14, 02:59:06,VALID,915.374,VALID,0.0,VALID,94.028,VALID,-0.022,VALID,20.812,VALID,119.0,VALID,0.148,
2018-04-14, 03:00:06,VALID,915.355,VALID,0.0,VALID,93.473,VALID,-0.025,VALID,20.813,VALID,120.0,VALID,0.349,
2018-04-14, 03:01:06,VALID,915.355,VALID,0.0,VALID,93.347,VALID,-0.014,VALID,20.834,VALID,120.0,VALID,0.062,
2018-04-14, 03:02:06,VALID,915.352,VALID,0.0,VALID,93.515,VALID,-0.029,VALID,20.831,VALID,140.0,VALID,0.043,
2018-04-14, 03:03:06,VALID,915.372,VALID,0.0,VALID,93.801,VALID,-0.027,VALID,20.815,VALID,127.0,VALID,0.0,
2018-04-14, 03:04:06,VALID,915.385,VALID,0.0,VALID,94.064,VALID,-0.031,VALID,20.777,VALID,111.0,VALID,0.0,
2018-04-14, 03:05:06,VALID,915.386,VALID,0.0,VALID,94.279,VALID,-0.028,VALID,20.75,VALID,112.0,VALID,0.395,
2018-04-14, 03:06:06,VALID,915.397,VALID,0.0,VALID,94.24,VALID,-0.032,VALID,20.739,VALID,119.0,VALID,0.849,
2018-04-14, 03:07:06,VALID,915.407,VALID,0.0,VALID,93.912,VALID,-0.021,VALID,20.778,VALID,119.0,VALID,1.052,
2018-04-14, 03:08:06,VALID,915.402,VALID,0.0,VALID,93.601,VALID,-0.036,VALID,20.838,VALID,125.0,VALID,1.185,
2018-04-14, 03:09:06,VALID,915.395,VALID,0.0,VALID,93.299,VALID,-0.027,VALID,20.898,VALID,129.0,VALID,1.025,
2018-04-14, 03:10:06,VALID,915.394,VALID,0.0,VALID,93.221,VALID,-0.026,VALID,20.916,VALID,122.0,VALID,1.025,
2018-04-14, 03:11:06,VALID,915.38,VALID,0.0,VALID,93.255,VALID,-0.023,VALID,20.906,VALID,112.0,VALID,0.791,
2018-04-14, 03:12:06,VALID,915.36,VALID,0.0,VALID,93.369,VALID,-0.036,VALID,20.889,VALID,80.0,VALID,0.213,
2018-04-14, 03:13:06,VALID,915.355,VALID,0.0,VALID,93.572,VALID,-0.009,VALID,20.86,VALID,99.0,VALID,1.17,
2018-04-14, 03:14:06,VALID,915.319,VALID,0.0,VALID,93.365,VALID,-0.025,VALID,20.871,VALID,105.0,VALID,1.52,
2018-04-14, 03:15:06,VALID,915.299,VALID,0.0,VALID,93.083,VALID,-0.027,VALID,20.92,VALID,106.0,VALID,1.677,
2018-04-14, 03:16:06,VALID,915.291,VALID,0.0,VALID,92.795,VALID,-0.003,VALID,20.967,VALID,112.0,VALID,1.109,
2018-04-14, 03:17:06,VALID,915.283,VALID,0.0,VALID,92.698,VALID,-0.012,VALID,20.968,VALID,114.0,VALID,1.038,
2018-04-14, 03:18:06,VALID,915.287,VALID,0.0,VALID,92.628,VALID,-0.01,VALID,20.972,VALID,108.0,VALID,1.268,
2018-04-14, 03:19:06,VALID,915.284,VALID,0.0,VALID,92.329,VALID,-0.011,VALID,21.007,VALID,105.0,VALID,0.893,
2018-04-14, 03:20:06,VALID,915.294,VALID,0.0,VALID,92.344,VALID,-0.013,VALID,21.012,VALID,92.0,VALID,0.593,
2018-04-14, 03:21:06,VALID,915.29,VALID,0.0,VALID,92.405,VALID,0.002,VALID,21.006,VALID,93.0,VALID,1.22,
2018-04-14, 03:22:06,VALID,915.288,VALID,0.0,VALID,92.322,VALID,-0.009,VALID,21.029,VALID,96.0,VALID,1.013,
2018-04-14, 03:23:06,VALID,915.276,VALID,0.0,VALID,92.204,VALID,-0.009,VALID,21.061,VALID,89.0,VALID,1.292,
2018-04-14, 03:24:06,VALID,915.268,VALID,0.0,VALID,91.793,VALID,-0.004,VALID,21.126,VALID,105.0,VALID,1.766,
2018-04-14, 03:25:06,VALID,915.253,VALID,0.0,VALID,91.223,VALID,-0.005,VALID,21.216,VALID,111.0,VALID,1.371,
2018-04-14, 03:26:06,VALID,915.233,VALID,0.0,VALID,91.087,VALID,-0.015,VALID,21.256,VALID,116.0,VALID,1.171,
2018-04-14, 03:27:06,VALID,915.225,VALID,0.0,VALID,91.246,VALID,-0.028,VALID,21.213,VALID,111.0,VALID,1.666,
2018-04-14, 03:28:06,VALID,915.215,VALID,0.0,VALID,91.231,VALID,-0.021,VALID,21.205,VALID,105.0,VALID,1.379,
2018-04-14, 03:29:06,VALID,915.217,VALID,0.0,VALID,91.325,VALID,0.008,VALID,21.191,VALID,115.0,VALID,1.643,
2018-04-14, 03:30:06,VALID,915.2,VALID,0.0,VALID,91.254,VALID,-0.007,VALID,21.2,VALID,109.0,VALID,1.542,
2018-04-14, 03:31:06,VALID,915.2,VALID,0.0,VALID,91.16,VALID,-0.005,VALID,21.211,VALID,97.0,VALID,1.273,
2018-04-14, 03:32:06,VALID,915.184,VALID,0.0,VALID,91.096,VALID,0.0,VALID,21.21,VALID,103.0,VALID,1.42,
2018-04-14, 03:33:06,VALID,915.16,VALID,0.0,VALID,90.919,VALID,-0.004,VALID,21.246,VALID,102.0,VALID,1.886,
2018-04-14, 03:34:06,VALID,915.149,VALID,0.0,VALID,90.622,VALID,-0.012,VALID,21.293,VALID,91.0,VALID,2.205,
2018-04-14, 03:35:06,VALID,915.127,VALID,0.0,VALID,90.157,VALID,-0.017,VALID,21.378,VALID,98.0,VALID,2.506,
2018-04-14, 03:36:06,VALID,915.072,VALID,0.0,VALID,89.802,VALID,0.006,VALID,21.443,VALID,86.0,VALID,2.898,
2018-04-14, 03:37:06,VALID,915.048,VALID,0.0,VALID,89.751,VALID,-0.005,VALID,21.473,VALID,93.0,VALID,1.675,
2018-04-14, 03:38:06,VALID,915.023,VALID,0.0,VALID,90.004,VALID,-0.004,VALID,21.417,VALID,96.0,VALID,2.18,
2018-04-14, 03:39:06,VALID,915.01,VALID,0.0,VALID,90.309,VALID,-0.013,VALID,21.36,VALID,88.0,VALID,2.289,